W4RJF Weather Reports


Display with metric or nautical units.
time (UTC)temp
F
wind
direction
speed
MPH
gust
MPH
rain 1hr
in
rain 24hr
in
rain mn
in
humidity
%
barometer
mb
20260906223029 78 96 1.0 2.0 0.00 0.00 0.00 68 1013.8
20260906222514 78 83 1.0 4.0 0.00 0.00 0.00 67 1013.6
20260906222018 78 98 1.0 4.0 0.00 0.00 0.00 68 1013.6
20260906221533 79 94 1.0 4.0 0.00 0.00 0.00 69 1013.7
20260906221018 79 82 0.0 4.0 0.00 0.00 0.00 70 1013.5
20260906220518 79 86 0.0 4.0 0.00 0.00 0.00 69 1013.4
20260906220031 78 95 1.0 4.0 0.00 0.00 0.00 69 1013.3
20260906215515 78 99 0.0 3.0 0.00 0.00 0.00 71 1013.3
20260906215017 79 92 0.0 3.0 0.00 0.00 0.00 72 1013.0
20260906214534 79 88 1.0 2.0 0.00 0.00 0.00 71 1013.0
20260906214010 79 82 0.0 3.0 0.00 0.00 0.00 71 1013.0
20260906213511 79 94 1.0 4.0 0.00 0.00 0.00 70 1013.0
20260906213025 79 96 1.0 4.0 0.00 0.00 0.00 70 1012.8
20260906212512 79 83 0.0 4.0 0.00 0.00 0.00 71 1012.8
20260906212015 79 112 1.0 4.0 0.00 0.00 0.00 70 1012.8
20260906211530 79 78 1.0 4.0 0.00 0.00 0.00 70 1012.8
20260906211016 80 86 1.0 3.0 0.00 0.00 0.00 70 1012.8
20260906210516 80 91 1.0 3.0 0.00 0.00 0.00 71 1012.9
20260906210032 80 80 1.0 3.0 0.00 0.00 0.00 71 1013.0
20260906205517 80 98 0.0 2.0 0.00 0.00 0.00 72 1012.9
20260906205017 79 98 0.0 2.0 0.00 0.00 0.00 73 1013.2
20260906204534 79 103 1.0 2.0 0.00 0.00 0.00 73 1013.0
20260906204018 79 94 1.0 3.0 0.00 0.00 0.00 73 1013.1
20260906203518 80 103 0.0 3.0 0.00 0.00 0.00 73 1013.0
20260906203028 80 89 1.0 4.0 0.00 0.00 0.00 72 1012.9
20260906202513 80 96 2.0 4.0 0.00 0.00 0.00 72 1012.8
20260906202014 81 103 1.0 3.0 0.00 0.00 0.00 72 1012.9
20260906201530 81 80 2.0 6.0 0.00 0.00 0.00 72 1012.9
20260906201017 80 74 0.0 6.0 0.00 0.00 0.00 72 1013.1
20260906200516 80 82 1.0 3.0 0.00 0.00 0.00 72 1013.0
20260906200033 80 70 0.0 2.0 0.00 0.00 0.00 73 1013.0
20260906195515 80 91 0.0 2.0 0.00 0.00 0.00 73 1013.2
20260906195016 80 67 0.0 3.0 0.00 0.00 0.00 73 1013.2
20260906194535 80 80 1.0 7.0 0.00 0.00 0.00 72 1013.3
20260906194008 81 111 2.0 7.0 0.00 0.00 0.00 73 1013.2
20260906193510 81 103 0.0 6.0 0.00 0.00 0.00 72 1013.3
20260906193020 81 105 0.0 6.0 0.00 0.00 0.00 73 1013.3
20260906192511 81 80 0.0 3.0 0.00 0.00 0.00 73 1013.3
20260906192010 81 97 0.0 3.0 0.00 0.00 0.00 72 1013.4
20260906191523 81 94 1.0 3.0 0.00 0.00 0.00 71 1013.6
20260906191012 81 103 1.0 3.0 0.00 0.00 0.00 72 1013.7
20260906190511 82 91 0.0 2.0 0.00 0.00 0.00 72 1013.5
20260906190006 82 96 0.0 3.0 0.00 0.00 0.00 70 1013.6
20260906185507 83 117 0.0 4.0 0.00 0.00 0.00 69 1013.5
20260906185005 83 94 1.0 4.0 0.00 0.00 0.00 67 1013.4
20260906184514 84 66 0.0 3.0 0.00 0.00 0.00 69 1013.5
20260906184009 83 84 0.0 3.0 0.00 0.00 0.00 70 1013.6
20260906183507 82 94 0.0 3.0 0.00 0.00 0.00 70 1013.6
20260906183024 83 61 1.0 3.0 0.00 0.00 0.00 70 1013.8
20260906182512 82 99 0.0 2.0 0.00 0.00 0.00 73 1013.6
20260906182012 81 92 0.0 2.0 0.00 0.00 0.00 74 1013.6
20260906181527 81 69 0.0 1.0 0.00 0.00 0.00 74 1013.7
20260906181013 81 53 0.0 2.0 0.00 0.00 0.00 75 1013.7
20260906180514 81 100 0.0 2.0 0.00 0.00 0.00 74 1013.6
20260906180026 81 90 0.0 2.0 0.00 0.00 0.00 75 1013.6
20260906175514 80 137 0.0 2.0 0.00 0.00 0.00 76 1013.6
20260906175007 80 104 0.0 2.0 0.00 0.00 0.00 76 1013.8
20260906174513 80 92 0.0 2.0 0.00 0.00 0.00 76 1013.8
20260906174006 80 84 0.0 3.0 0.00 0.00 0.00 76 1013.8
20260906173506 80 101 1.0 3.0 0.00 0.00 0.00 76 1013.8
20260906173016 80 105 0.0 2.0 0.00 0.00 0.00 75 1013.9
20260906172509 81 87 0.0 2.0 0.00 0.00 0.00 74 1014.0
20260906172008 81 98 0.0 2.0 0.00 0.00 0.00 73 1013.9
20260906171523 82 78 0.0 2.0 0.00 0.00 0.00 72 1013.9
20260906171011 82 96 0.0 2.0 0.00 0.00 0.00 73 1013.9
20260906170513 82 63 0.0 2.0 0.00 0.00 0.00 71 1013.8
20260906170027 82 55 0.0 2.0 0.00 0.00 0.00 70 1013.7
20260906165514 82 93 0.0 2.0 0.00 0.00 0.00 71 1013.8
20260906165013 82 89 0.0 3.0 0.00 0.00 0.00 71 1013.7
20260906164527 82 92 0.0 3.0 0.00 0.00 0.00 72 1013.8
20260906164015 82 97 1.0 3.0 0.00 0.00 0.00 71 1013.9
20260906163506 82 72 0.0 3.0 0.00 0.00 0.00 73 1013.9
20260906163012 81 61 1.0 3.0 0.00 0.00 0.00 72 1013.9
20260906162508 82 87 0.0 3.0 0.00 0.00 0.00 73 1014.0
20260906162008 82 101 1.0 3.0 0.00 0.00 0.00 73 1013.9
20260906161520 81 82 0.0 3.0 0.00 0.00 0.00 73 1014.0
20260906161014 82 71 1.0 4.0 0.00 0.00 0.00 72 1014.0
20260906160511 82 87 0.0 4.0 0.00 0.00 0.00 76 1014.1
20260906160024 82 97 0.0 2.0 0.00 0.00 0.00 75 1014.1
20260906155513 81 96 0.0 3.0 0.00 0.00 0.00 74 1014.1
20260906155015 81 323 0.0 3.0 0.00 0.00 0.00 76 1014.3
20260906154530 81 261 0.0 2.0 0.00 0.00 0.00 75 1014.2
20260906154013 81 109 0.0 2.0 0.00 0.00 0.00 77 1014.3
20260906153520 80 96 0.0 2.0 0.00 0.00 0.00 76 1014.5
20260906153033 80 333 0.0 2.0 0.00 0.00 0.00 79 1014.4
20260906152506 80 100 0.0 2.0 0.00 0.00 0.00 78 1014.5
20260906152007 80 344 0.0 2.0 0.00 0.00 0.00 78 1014.2
20260906151518 79 5 0.0 2.0 0.00 0.00 0.00 80 1014.1
20260906151009 79 345 0.0 2.0 0.00 0.00 0.00 80 1014.4
20260906150510 79 9 0.0 2.0 0.00 0.00 0.00 80 1014.3
20260906150023 79 86 0.0 3.0 0.00 0.00 0.00 81 1014.2
20260906145512 79 84 0.0 3.0 0.00 0.00 0.00 80 1014.0
20260906145014 79 89 1.0 2.0 0.00 0.00 0.00 79 1014.0
20260906144528 79 74 0.0 3.0 0.00 0.00 0.00 80 1014.2
20260906144015 78 213 0.0 3.0 0.00 0.00 0.00 82 1014.1
20260906143513 78 97 1.0 1.0 0.00 0.00 0.00 82 1014.2
20260906143031 78 71 0.0 0.0 0.00 0.00 0.00 82 1014.0
20260906142514 78 71 0.0 1.0 0.00 0.00 0.00 83 1014.1
20260906142016 77 76 0.0 1.0 0.00 0.00 0.00 83 1014.1
20260906141513 77 116 0.0 1.0 0.00 0.00 0.00 83 1014.2
20260906141007 77 114 0.0 1.0 0.00 0.00 0.00 84 1014.2
20260906140511 77 98 0.0 1.0 0.00 0.00 0.00 85 1014.0
20260906140024 76 179 0.0 0.0 0.00 0.00 0.00 84 1013.9
20260906135514 76 84 0.0 2.0 0.00 0.00 0.00 85 1013.8
20260906135011 76 80 0.0 2.0 0.00 0.00 0.00 84 1013.9
20260906134528 76 80 0.0 2.0 0.00 0.00 0.00 85 1013.9
20260906134003 76 75 0.0 0.0 0.00 0.00 0.00 85 1013.9
20260906133504 76 75 0.0 1.0 0.00 0.00 0.00 86 1013.7
20260906133007 76 74 0.0 2.0 0.00 0.00 0.00 85 1013.6
20260906132504 76 94 0.0 2.0 0.00 0.00 0.00 86 1013.6
20260906132004 76 99 0.0 2.0 0.00 0.00 0.00 87 1013.8
20260906131520 75 99 0.0 2.0 0.00 0.00 0.00 87 1013.7
20260906131007 75 85 0.0 2.0 0.00 0.00 0.00 86 1013.6
20260906130505 75 92 0.0 2.0 0.00 0.00 0.00 87 1013.6
20260906130024 75 97 0.0 2.0 0.00 0.00 0.00 88 1013.6
20260906125509 75 96 0.0 2.0 0.00 0.00 0.00 88 1013.8
20260906125010 75 91 0.0 2.0 0.00 0.00 0.00 88 1013.8
20260906124505 75 92 0.0 3.0 0.00 0.00 0.00 88 1013.7
20260906124004 75 105 1.0 3.0 0.00 0.00 0.00 89 1013.6
20260906123503 75 140 0.0 0.0 0.00 0.00 0.00 89 1013.7
20260906123006 74 147 0.0 2.0 0.00 0.00 0.00 90 1013.7
20260906122503 74 111 0.0 2.0 0.00 0.00 0.00 90 1013.6
20260906122003 74 103 0.0 2.0 0.00 0.00 0.00 90 1013.6
20260906121508 74 100 0.0 2.0 0.00 0.00 0.00 90 1013.5
20260906121006 74 100 0.0 2.0 0.00 0.00 0.00 91 1013.5
20260906120507 74 100 0.0 2.0 0.00 0.00 0.00 91 1013.5
20260906120017 74 99 0.0 2.0 0.00 0.00 0.00 91 1013.5
20260906115509 74 96 0.0 2.0 0.00 0.00 0.00 91 1013.3
20260906115007 73 100 0.0 2.0 0.00 0.00 0.00 91 1013.2
20260906114526 73 96 0.0 1.0 0.00 0.00 0.00 92 1013.2
20260906114012 73 92 0.0 0.0 0.00 0.00 0.00 92 1013.1
20260906113502 73 92 0.0 0.0 0.00 0.00 0.00 92 1013.1
20260906113006 73 92 0.0 2.0 0.00 0.00 0.00 92 1013.1
20260906112503 73 92 0.0 2.0 0.00 0.00 0.00 92 1013.0
20260906112003 73 100 0.0 2.0 0.00 0.00 0.00 92 1013.0
20260906111508 73 100 0.0 2.0 0.00 0.00 0.00 92 1013.0
20260906111004 73 94 0.0 0.0 0.00 0.00 0.00 92 1012.9
20260906110504 73 92 0.0 0.0 0.00 0.00 0.00 92 1012.8
20260906110015 73 92 0.0 1.0 0.00 0.00 0.00 92 1012.7
20260906105508 73 92 0.0 2.0 0.00 0.00 0.00 92 1012.5
20260906105008 73 79 0.0 2.0 0.00 0.00 0.00 92 1012.4
20260906104518 73 97 0.0 2.0 0.00 0.00 0.00 92 1012.4
20260906104010 73 91 0.0 1.0 0.00 0.00 0.00 92 1012.4
20260906103509 73 93 0.0 2.0 0.00 0.00 0.00 92 1012.5
20260906103028 73 93 0.0 2.0 0.00 0.00 0.00 93 1012.5
20260906102513 73 92 0.0 2.0 0.00 0.00 0.00 93 1012.6
20260906102003 73 97 0.0 2.0 0.00 0.00 0.00 93 1012.4
20260906101505 73 93 0.0 2.0 0.00 0.00 0.00 93 1012.4
20260906101005 73 84 0.0 0.0 0.00 0.00 0.00 94 1012.3
20260906100505 73 85 0.0 0.0 0.00 0.00 0.00 94 1012.2
20260906100012 73 81 0.0 0.0 0.00 0.00 0.00 94 1012.1
20260906095504 73 81 0.0 1.0 0.00 0.00 0.00 94 1012.0
20260906095008 73 81 0.0 0.0 0.00 0.00 0.00 94 1011.9
20260906094522 73 81 0.0 0.0 0.00 0.00 0.00 94 1011.8
20260906094010 73 81 0.0 0.0 0.00 0.00 0.00 94 1011.8
20260906093512 73 81 0.0 2.0 0.00 0.00 0.00 94 1011.8
20260906093031 73 80 0.0 2.0 0.00 0.00 0.00 94 1011.7
20260906092514 73 73 0.0 1.0 0.00 0.00 0.00 94 1011.7
20260906092015 73 78 0.0 0.0 0.00 0.00 0.00 94 1011.8
20260906091528 73 78 0.0 0.0 0.00 0.00 0.00 94 1011.6
20260906091004 73 78 0.0 0.0 0.00 0.00 0.00 94 1011.6
20260906090507 73 78 0.0 0.0 0.00 0.00 0.00 94 1011.6
20260906090009 73 78 0.0 0.0 0.00 0.00 0.00 94 1011.7
20260906085506 73 78 0.0 0.0 0.00 0.00 0.00 94 1011.6
20260906085007 73 71 0.0 0.0 0.00 0.00 0.00 94 1011.5
20260906084515 73 278 0.0 1.0 0.00 0.00 0.00 94 1011.4
20260906084009 73 278 0.0 1.0 0.00 0.00 0.00 94 1011.5
20260906083509 73 279 0.0 0.0 0.00 0.00 0.00 94 1011.4
20260906083025 73 279 0.0 0.0 0.00 0.00 0.00 94 1011.4
20260906082515 73 56 0.0 0.0 0.00 0.00 0.00 94 1011.2
20260906082010 73 56 0.0 0.0 0.00 0.00 0.00 94 1011.3
20260906081530 72 56 0.0 0.0 0.00 0.00 0.00 94 1011.2
20260906081012 72 56 0.0 0.0 0.00 0.00 0.00 94 1011.1
20260906080515 72 56 0.0 0.0 0.00 0.00 0.00 94 1011.1
20260906080010 72 56 0.0 0.0 0.00 0.00 0.00 95 1011.0
20260906075506 72 56 0.0 0.0 0.00 0.00 0.00 95 1011.0
20260906075006 72 56 0.0 0.0 0.00 0.00 0.00 95 1010.9
20260906074514 72 56 0.0 0.0 0.00 0.00 0.00 94 1010.9
20260906074007 72 56 0.0 0.0 0.00 0.00 0.00 94 1010.7
20260906073509 72 56 0.0 0.0 0.00 0.00 0.00 94 1010.7
20260906073021 72 56 0.0 0.0 0.00 0.00 0.00 94 1010.8
20260906072510 72 56 0.0 0.0 0.00 0.00 0.00 94 1010.7
20260906072010 72 56 0.0 0.0 0.00 0.00 0.00 94 1010.8
20260906071523 72 56 0.0 0.0 0.00 0.00 0.00 95 1010.8
20260906071014 72 56 0.0 0.0 0.00 0.00 0.00 94 1010.9
20260906070517 72 56 0.0 0.0 0.00 0.00 0.00 95 1010.9
20260906070031 72 56 0.0 0.0 0.00 0.00 0.00 94 1010.8
20260906065515 72 56 0.0 0.0 0.00 0.00 0.00 94 1010.8
20260906065017 72 56 0.0 0.0 0.00 0.00 0.00 94 1010.9
20260906064514 72 56 0.0 0.0 0.00 0.00 0.00 94 1011.0
20260906064006 72 56 0.0 0.0 0.00 0.00 0.00 94 1011.1
20260906063506 72 56 0.0 0.0 0.00 0.00 0.00 94 1011.1
20260906063016 72 56 0.0 0.0 0.00 0.00 0.00 94 1011.1
20260906062509 72 56 0.0 0.0 0.00 0.00 0.00 94 1011.1
20260906062011 72 56 0.0 0.0 0.00 0.00 0.00 94 1011.1
20260906061526 72 56 0.0 0.0 0.00 0.00 0.00 94 1011.1
20260906061011 72 56 0.0 0.0 0.00 0.00 0.00 94 1011.2
20260906060519 72 56 0.0 0.0 0.00 0.00 0.00 94 1011.2
20260906060029 72 56 0.0 0.0 0.00 0.00 0.00 94 1011.4
20260906055515 72 56 0.0 0.0 0.00 0.00 0.00 94 1011.4
20260906055016 72 56 0.0 0.0 0.00 0.00 0.00 94 1011.3
20260906054533 72 56 0.0 0.0 0.00 0.00 0.00 94 1011.5
20260906054014 72 56 0.0 0.0 0.00 0.00 0.00 94 1011.6
20260906053504 72 56 0.0 0.0 0.00 0.00 0.00 94 1011.5
20260906053020 72 56 0.0 0.0 0.00 0.00 0.00 94 1011.6
20260906052508 72 56 0.0 0.0 0.00 0.00 0.00 94 1011.6
20260906052010 72 56 0.0 0.0 0.00 0.00 0.00 94 1011.7
20260906051523 72 56 0.0 0.0 0.00 0.00 0.00 94 1011.9
20260906051012 72 56 0.0 0.0 0.00 0.00 0.00 94 1011.9
20260906050517 72 56 0.0 0.0 0.00 0.00 0.00 93 1012.0
20260906050028 72 56 0.0 0.0 0.00 0.00 0.00 93 1012.0
20260906045515 72 56 0.0 0.0 0.00 0.00 0.00 93 1012.0
20260906045014 73 56 0.0 0.0 0.00 0.00 0.00 93 1012.0
20260906044533 73 56 0.0 0.0 0.00 0.00 0.00 93 1012.0
20260906044018 73 56 0.0 0.0 0.00 0.00 0.00 93 1012.0
20260906043516 73 56 0.0 0.0 0.00 0.00 0.00 93 1012.0
20260906043031 73 56 0.0 0.0 0.00 0.00 0.00 93 1012.1
20260906042515 73 56 0.0 0.0 0.00 0.00 0.00 94 1012.0
20260906042007 73 56 0.0 0.0 0.00 0.00 0.00 94 1012.1
20260906041523 73 56 0.0 0.0 0.00 0.00 0.00 93 1012.1
20260906041010 73 56 0.0 0.0 0.00 0.00 0.00 93 1012.2
20260906040511 73 86 0.0 0.0 0.00 0.00 0.00 93 1012.1
20260906040027 73 86 0.0 0.0 0.00 0.00 0.00 93 1012.1
20260906035513 73 86 0.0 0.0 0.00 0.00 0.00 93 1012.1
20260906035014 73 86 0.0 0.0 0.00 0.00 0.00 93 1012.0
20260906034533 73 86 0.0 0.0 0.00 0.00 0.00 93 1012.2
20260906034015 73 86 0.0 0.0 0.00 0.00 0.00 93 1012.3
20260906033515 73 86 0.0 0.0 0.00 0.00 0.00 92 1012.2
20260906033016 73 86 0.0 0.0 0.00 0.00 0.00 92 1012.2
20260906032505 73 86 0.0 0.0 0.00 0.00 0.00 92 1012.3
20260906032007 73 86 0.0 0.0 0.00 0.00 0.00 92 1012.3
20260906031513 73 86 0.0 0.0 0.00 0.00 0.00 92 1012.3
20260906031008 74 86 0.0 0.0 0.00 0.00 0.00 91 1012.3
20260906030510 74 86 0.0 0.0 0.00 0.00 0.00 91 1012.1
20260906030024 74 86 0.0 0.0 0.00 0.00 0.00 90 1012.1
20260906025505 74 86 0.0 0.0 0.00 0.00 0.00 90 1012.2
20260906025003 74 86 0.0 0.0 0.00 0.00 0.00 90 1012.1
20260906024503 74 86 0.0 0.0 0.00 0.00 0.00 90 1012.1
20260906024007 74 86 0.0 0.0 0.00 0.00 0.00 89 1012.2
20260906023504 75 86 0.0 0.0 0.00 0.00 0.00 89 1012.3
20260906023008 75 86 0.0 0.0 0.00 0.00 0.00 89 1012.2
20260906022505 75 86 0.0 0.0 0.00 0.00 0.00 89 1012.1
20260906022008 75 86 0.0 0.0 0.00 0.00 0.00 89 1012.1
20260906021516 74 88 0.0 0.0 0.00 0.00 0.00 89 1012.0
20260906021007 74 88 0.0 0.0 0.00 0.00 0.00 89 1011.9
20260906020509 74 88 0.0 0.0 0.00 0.00 0.00 90 1012.0
20260906020020 74 31 0.0 0.0 0.00 0.00 0.00 90 1012.0
20260906015510 74 28 0.0 0.0 0.00 0.00 0.00 90 1012.1
20260906015010 74 28 0.0 0.0 0.00 0.00 0.00 90 1012.1
20260906014533 75 348 0.0 0.0 0.00 0.00 0.00 90 1012.0
20260906014004 75 348 0.0 0.0 0.00 0.00 0.00 91 1011.9
20260906013504 75 348 0.0 0.0 0.00 0.00 0.00 91 1012.0
20260906013006 75 348 0.0 0.0 0.00 0.00 0.00 91 1012.0
20260906012503 75 336 0.0 0.0 0.00 0.00 0.00 92 1011.8
20260906012007 75 319 0.0 0.0 0.00 0.00 0.00 91 1011.7
20260906011510 75 319 0.0 0.0 0.00 0.00 0.00 91 1011.7
20260906011006 75 319 0.0 0.0 0.00 0.00 0.00 91 1011.7
20260906010507 75 319 0.0 0.0 0.00 0.00 0.00 91 1011.7
20260906010015 75 319 0.0 0.0 0.00 0.00 0.00 91 1011.6
20260906005507 75 319 0.0 0.0 0.00 0.00 0.00 90 1011.7
20260906005015 75 319 0.0 0.0 0.00 0.00 0.00 90 1011.7
20260906004525 75 319 0.0 0.0 0.00 0.00 0.00 90 1011.5
20260906004012 75 319 0.0 0.0 0.00 0.00 0.00 90 1011.6
20260906003511 75 319 0.0 0.0 0.00 0.00 0.00 90 1011.6
20260906003003 75 319 0.0 0.0 0.00 0.00 0.00 90 1011.5
20260906002504 75 319 0.0 0.0 0.00 0.00 0.00 89 1011.5
20260906002004 75 350 0.0 0.0 0.00 0.00 0.00 89 1011.3
20260906001508 76 350 0.0 0.0 0.00 0.00 0.00 89 1011.2
20260906001005 76 350 0.0 0.0 0.00 0.00 0.00 88 1011.1
20260906000507 76 350 0.0 0.0 0.00 0.00 0.00 87 1010.9
20260906000013 76 350 0.0 0.0 0.00 0.00 0.00 87 1010.9
20260905235508 76 350 0.0 2.0 0.00 0.00 0.00 87 1010.9
20260905235009 76 352 0.0 2.0 0.00 0.00 0.00 87 1010.8
20260905234519 76 352 0.0 1.0 0.00 0.00 0.00 87 1010.7
20260905234008 77 352 0.0 1.0 0.00 0.00 0.00 87 1010.7
20260905233512 77 352 0.0 0.0 0.00 0.00 0.00 88 1010.8
20260905233024 77 352 0.0 0.0 0.00 0.00 0.00 87 1010.7
20260905232514 77 352 0.0 0.0 0.00 0.00 0.00 87 1010.4
20260905232004 77 351 0.0 0.0 0.00 0.00 0.00 87 1010.5
20260905231508 77 350 0.0 0.0 0.00 0.00 0.00 87 1010.6
20260905231003 77 351 0.0 0.0 0.00 0.00 0.00 87 1010.5
20260905230508 77 351 0.0 0.0 0.00 0.00 0.00 87 1010.1
20260905230011 76 338 0.0 0.0 0.00 0.00 0.00 88 1009.9
20260905225505 76 338 0.0 0.0 0.00 0.00 0.00 88 1009.8
20260905225009 76 338 0.0 1.0 0.00 0.00 0.00 88 1009.8
20260905224520 76 337 0.0 1.0 0.00 0.00 0.00 88 1009.7
20260905224009 76 304 0.0 0.0 0.00 0.00 0.00 88 1009.7
20260905223509 76 302 0.0 0.0 0.00 0.00 0.00 89 1009.7